Terminal Aerodrome Forecast
Issued by NWS

Home | Current Version | Previous Version | Text Only | Print | Product List | Glossary On
Versions: 1 2 3 4 5 6 7 8 9 10 11 12 13 14 15 16 17 18 19 20 21 22 23 24 25 26 27 28 29 30
000
FTUS44 KFWD 200520
TAFDAL
TAF
KDAL 200520Z 2006/2106 14008KT P6SM BKN300
     FM201200 18008KT P6SM SCT300
     FM202000 15008KT P6SM FEW070 SCT300=

USA.gov is the U.S. government's official web portal to all federal, state and local government web resources and services.